TimeIST,TemperatureF,Dew PointF,Humidity,Sea Level PressureIn,VisibilityMPH,Wind Direction,Wind SpeedMPH,Gust SpeedMPH,PrecipitationIn,Events,Conditions,WindDirDegrees,DateUTC
12:10 AM,80.6,53.6,39,29.89,3.1,WNW,6.9,-,N/A,,Smoke,300,2013-03-20 18:40:00
12:40 AM,80.6,55.4,42,29.89,3.7,WNW,4.6,-,N/A,,Unknown,300,2013-03-20 19:10:00
1:10 AM,78.8,57.2,47,29.89,4.3,NW,3.5,-,N/A,,Unknown,310,2013-03-20 19:40:00
1:40 AM,78.8,59.0,51,29.86,4.3,Calm,Calm,-,N/A,,Unknown,0,2013-03-20 20:10:00
2:10 AM,78.8,59.0,51,29.86,3.7,North,4.6,-,N/A,,Unknown,350,2013-03-20 20:40:00
2:30 AM,69,60,66,29.86,1,Calm,Calm,,,,Smoke,,2013-03-20 21:00:00
2:40 AM,78.8,59.0,51,29.86,3.7,NNW,4.6,-,N/A,,Unknown,330,2013-03-20 21:10:00
3:10 AM,78.8,60.8,54,29.83,3.7,NNW,4.6,-,N/A,,Unknown,330,2013-03-20 21:40:00
3:40 AM,77.0,60.8,57,29.83,3.7,NE,3.5,-,N/A,,Unknown,50,2013-03-20 22:10:00
4:40 AM,77.0,60.8,57,29.83,3.1,Calm,Calm,-,N/A,,Smoke,0,2013-03-20 23:10:00
5:10 AM,77.0,62.6,61,29.83,3.1,North,4.6,-,N/A,,Smoke,350,2013-03-20 23:40:00
5:30 AM,66,61,78,29.84,1,Calm,Calm,,,,Haze,,2013-03-21 00:00:00
5:40 AM,77.0,62.6,61,29.83,3.1,Calm,Calm,-,N/A,,Smoke,0,2013-03-21 00:10:00
6:10 AM,75.2,62.6,65,29.86,3.1,ENE,3.5,-,N/A,,Smoke,70,2013-03-21 00:40:00
6:40 AM,75.2,62.6,65,29.86,3.1,Calm,Calm,-,N/A,,Smoke,0,2013-03-21 01:10:00
7:10 AM,75.2,62.6,65,29.86,2.5,Calm,Calm,-,N/A,,Smoke,0,2013-03-21 01:40:00
8:10 AM,77.0,60.8,57,29.89,2.2,Calm,Calm,-,N/A,,Smoke,0,2013-03-21 02:40:00
8:30 AM,77,63,52,29.90,1,Calm,Calm,,,,Smoke,,2013-03-21 03:00:00
8:40 AM,78.8,62.6,57,29.89,2.5,NNE,5.8,-,N/A,,Smoke,20,2013-03-21 03:10:00
9:10 AM,80.6,62.6,54,29.92,2.5,NW,3.5,-,N/A,,Smoke,310,2013-03-21 03:40:00
9:40 AM,82.4,59.0,45,29.92,2.5,Calm,Calm,-,N/A,,Smoke,0,2013-03-21 04:10:00
10:10 AM,84.2,57.2,40,29.92,2.5,ENE,4.6,-,N/A,,Smoke,60,2013-03-21 04:40:00
10:40 AM,86.0,57.2,37,29.89,2.5,Calm,Calm,-,N/A,,Smoke,0,2013-03-21 05:10:00
11:10 AM,87.8,60.8,40,29.89,2.5,WSW,10.4,-,N/A,,Smoke,250,2013-03-21 05:40:00
11:30 AM,89,63,31,29.87,1,West,6.9,,,,Smoke,270,2013-03-21 06:00:00
11:40 AM,87.8,62.6,43,29.86,2.5,WSW,11.5,-,N/A,,Smoke,250,2013-03-21 06:10:00
12:10 PM,87.8,62.6,43,29.86,2.5,West,10.4,-,N/A,,Smoke,260,2013-03-21 06:40:00
1:10 PM,87.8,64.4,46,29.80,3.1,West,15.0,-,N/A,,Smoke,260,2013-03-21 07:40:00
1:40 PM,87.8,62.6,43,29.80,3.1,West,15.0,-,N/A,,Smoke,280,2013-03-21 08:10:00
2:10 PM,89.6,62.6,40,29.77,3.7,WNW,12.7,-,N/A,,Unknown,290,2013-03-21 08:40:00
2:40 PM,89.6,64.4,43,29.77,4.3,West,13.8,-,N/A,,Unknown,280,2013-03-21 09:10:00
3:10 PM,89.6,62.6,40,29.77,4.3,WNW,13.8,-,N/A,,Unknown,300,2013-03-21 09:40:00
3:40 PM,89.6,62.6,40,29.74,5.0,WNW,11.5,-,N/A,,Unknown,300,2013-03-21 10:10:00
4:10 PM,89.6,64.4,43,29.74,5.0,WNW,12.7,-,N/A,,Unknown,290,2013-03-21 10:40:00
4:40 PM,87.8,64.4,46,29.74,4.3,WNW,11.5,-,N/A,,Unknown,300,2013-03-21 11:10:00
5:10 PM,87.8,62.6,43,29.74,3.7,WNW,10.4,-,N/A,,Unknown,300,2013-03-21 11:40:00
5:30 PM,87,67,43,29.75,1,NW,10.4,,,,Smoke,320,2013-03-21 12:00:00
6:10 PM,86.0,64.4,48,29.74,3.1,WNW,6.9,-,N/A,,Smoke,300,2013-03-21 12:40:00
6:40 PM,84.2,68.0,58,29.74,-9999.0,West,8.1,-,N/A,,Smoke,270,2013-03-21 13:10:00
7:10 PM,82.4,68.0,62,29.77,2.5,NW,5.8,-,N/A,,Smoke,310,2013-03-21 13:40:00
7:40 PM,82.4,68.0,62,29.77,2.5,WNW,9.2,-,N/A,,Smoke,300,2013-03-21 14:10:00
8:30 PM,81,69,59,29.79,1,NW,6.9,,,,Smoke,320,2013-03-21 15:00:00
8:40 PM,82.4,69.8,66,29.80,3.1,WNW,5.8,-,N/A,,Smoke,300,2013-03-21 15:10:00
9:10 PM,80.6,69.8,70,29.80,3.1,NW,5.8,-,N/A,,Smoke,310,2013-03-21 15:40:00
9:40 PM,80.6,69.8,70,29.80,3.1,NW,3.5,-,N/A,,Haze,310,2013-03-21 16:10:00
10:10 PM,80.6,69.8,70,29.80,3.1,WNW,3.5,-,N/A,,Haze,300,2013-03-21 16:40:00
10:40 PM,80.6,69.8,70,29.83,2.5,WNW,3.5,-,N/A,,Haze,300,2013-03-21 17:10:00
11:10 PM,80.6,71.6,74,29.80,2.5,NW,6.9,-,N/A,,Haze,310,2013-03-21 17:40:00
11:30 PM,79,71,69,29.81,1,NW,4.6,,,,Haze,320,2013-03-21 18:00:00
11:40 PM,78.8,71.6,78,29.80,2.5,NW,5.8,-,N/A,,Haze,310,2013-03-21 18:10:00